South Lake Tahoe, CA

11:37 PM PST on December 16, 2017 (GMT -0800)
Lake Tahoe

Weather History for KTVL - May, 2012

Change the Weather History Date:

Thursday, May 10, 2012

  Actual Average Record
Temperature  
Mean Temperature 50 °F 46 °F  
Max Temperature 65 °F 62 °F 74 °F (1987)
Min Temperature 34 °F 31 °F 18 °F (1980)
Degree Days  
Heating Degree Days 15 18  
Month to date heating degree days 193 197  
Since 1 July heating degree days 6406 7087  
Cooling Degree Days 0 0  
Month to date cooling degree days 0 0  
Year to date cooling degree days 0 0  
Moisture  
Dew Point 26 °F    
Average Humidity 44    
Maximum Humidity 64    
Minimum Humidity 24    
Precipitation  
Precipitation 0.00 in - 0.80 in (1967)
Month to date precipitation T  
Year to date precipitation 9.76  
Sea Level Pressure  
Sea Level Pressure 29.96 in    
Wind  
Wind Speed 3 mph (South)    
Max Wind Speed 12 mph    
Max Gust Speed 17 mph    
Visibility 10 miles    
Events      
T = Trace of Precipitation, MM = Missing Value Source: NWS Daily Summary

Daily Weather History Graph

Daily Weather History Graph

Search for Another Location

Airport or City:

Trip Planner

Search our weather history database for the weather conditions in past years. The results will help you decide how hot, cold, wet, or windy it might be!

Date:

Astronomy

May. 10, 2012 Rise Set
Actual Time 5:51 AM PDT 8:01 PM PDT
Civil Twilight 5:22 AM PDT 8:31 PM PDT
Nautical Twilight 4:45 AM PDT 9:07 PM PDT
Astronomical Twilight 4:06 AM PDT 9:47 PM PDT
Moon 12:03 AM PDT (5/10) 10:21 AM PDT (5/10)
Length of Visible Light 15h 09m
Length of Day
14h 10m
Waning Gibbous, 72% of the Moon is Illuminated
May 10
Waning Gibbous
May 12
Last Quarter
May 20
New
May 28
First Quarter
Jun 4
Full

Hourly Weather History & Observations

Time (PDT) Temp. Windchill Dew Point Humidity Pressure Visibility Wind Dir Wind Speed Gust Speed Precip Events Conditions
12:53 AM 50.0 °F - 16.0 °F 26% 29.92 in 10.0 mi SSW 4.6 mph - N/A   Clear
1:53 AM 46.9 °F - 17.1 °F 30% 29.91 in 10.0 mi SSW 4.6 mph - N/A   Clear
2:53 AM 44.1 °F - 19.9 °F 38% 29.91 in 10.0 mi Calm Calm - N/A   Clear
3:53 AM 41.0 °F 39.0 °F 21.9 °F 47% 29.92 in 10.0 mi South 3.5 mph - N/A   Clear
4:53 AM 37.0 °F - 23.0 °F 57% 29.94 in 10.0 mi Calm Calm - N/A   Clear
5:53 AM 35.1 °F 31.0 °F 23.0 °F 61% 29.97 in 10.0 mi South 4.6 mph - N/A   Clear
6:53 AM 37.0 °F 34.5 °F 24.1 °F 59% 29.98 in 10.0 mi South 3.5 mph - N/A   Clear
7:53 AM 45.0 °F - 24.1 °F 44% 29.96 in 10.0 mi Calm Calm - N/A   Clear
8:53 AM 53.1 °F - 30.9 °F 43% 29.97 in 10.0 mi Variable 4.6 mph - N/A   Clear
9:53 AM 55.0 °F - 30.0 °F 38% 29.97 in 10.0 mi Calm Calm - N/A   Clear
10:53 AM 57.9 °F - 27.0 °F 31% 29.97 in 10.0 mi Variable 3.5 mph - N/A   Clear
11:53 AM 59.0 °F - 27.0 °F 29% 29.96 in 10.0 mi Variable 4.6 mph - N/A   Clear
12:53 PM 60.1 °F - 26.1 °F 27% 29.96 in 10.0 mi Variable 6.9 mph - N/A   Clear
1:53 PM 61.0 °F - 27.0 °F 27% 29.96 in 10.0 mi NNE 5.8 mph - N/A   Clear
2:53 PM 63.0 °F - 26.1 °F 25% 29.95 in 10.0 mi NNE 4.6 mph - N/A   Clear
3:53 PM 62.6 °F - 26.6 °F 26% 30.05 in 10.0 mi North 3.5 mph - N/A   Clear
4:53 PM 63.0 °F - 26.1 °F 25% 29.94 in 10.0 mi Variable 3.5 mph - N/A   Clear
5:53 PM 61.0 °F - 28.0 °F 29% 29.95 in 10.0 mi Calm Calm - N/A   Partly Cloudy
6:53 PM 61.0 °F - 34.0 °F 36% 29.94 in 10.0 mi Calm Calm - N/A   Overcast
7:53 PM 55.0 °F - 33.1 °F 43% 29.95 in 10.0 mi Calm Calm - N/A   Partly Cloudy
8:53 PM 48.9 °F - 30.9 °F 50% 29.96 in 10.0 mi Calm Calm - N/A   Clear
9:53 PM 44.6 °F - 30.2 °F 57% 30.09 in 10.0 mi Calm Calm - N/A   Partly Cloudy
10:53 PM 43.0 °F - 30.0 °F 60% 29.99 in 10.0 mi Calm Calm - N/A   Clear
11:53 PM 39.9 °F - 28.9 °F 65% 30.00 in 10.0 mi Calm Calm - N/A   Clear